When you browse on this site, cookies collect data to enhance your experience and personalize the content and advertising you see.
Visit our Privacy Policy to learn more. By continuing to use the site, you agree to this use of cookies and data.
  • In Denmark
  • List of Countries
  • For 7 days
  • Water Temperature
  • Satellite Maps
  • Weather Map
  • Weather Widgets
  • user-avatar
    Login

    Hourly Weather Tafilah

    Today, 16 July, Tuesday

    Time Temperature Precipitation Wind Pressure Humidity
    00:00 +20°C° 0 mm 2 mps 695 mmHg 71%
    01:00 +20°C° 0 mm 2 mps 695 mmHg 70%
    02:00 +19°C° 0 mm 2 mps 695 mmHg 72%
    03:00 +19°C° 0 mm 2 mps 695 mmHg 70%
    04:00 +19°C° 0 mm 2 mps 695 mmHg 69%
    05:00 +18°C° 0 mm 2 mps 695 mmHg 67%
    06:00 +20°C° 0 mm 2 mps 695 mmHg 58%
    07:00 +23°C° 0 mm 2 mps 696 mmHg 50%
    08:00 +26°C° 0 mm 2 mps 696 mmHg 42%
    09:00 +27°C° 0 mm 2 mps 697 mmHg 37%
    10:00 +29°C° 0 mm 3 mps 697 mmHg 31%
    11:00 +31°C° 0 mm 3 mps 697 mmHg 26%
    12:00 +33°C° 0 mm 3 mps 697 mmHg 25%
    13:00 +34°C° 0 mm 3 mps 696 mmHg 25%
    14:00 +34°C° 0 mm 4 mps 696 mmHg 24%
    15:00 +35°C° 0 mm 4 mps 696 mmHg 25%
    16:00 +35°C° 0 mm 4 mps 696 mmHg 25%
    17:00 +35°C° 0 mm 4 mps 696 mmHg 26%
    18:00 +33°C° 0 mm 4 mps 696 mmHg 29%
    19:00 +30°C° 0 mm 3 mps 696 mmHg 33%
    20:00 +28°C° 0 mm 2 mps 696 mmHg 37%
    21:00 +27°C° 0 mm 2 mps 696 mmHg 39%
    22:00 +26°C° 0 mm 1 mps 696 mmHg 40%
    23:00 +25°C° 0 mm 1 mps 696 mmHg 42%

    Tomorrow, 17 July, Wednesday

    Time Temperature Precipitation Wind Pressure Humidity
    00:00 +25°C° 0 mm 1 mps 695 mmHg 41%
    01:00 +25°C° 0 mm 1 mps 695 mmHg 41%
    02:00 +24°C° 0 mm 1 mps 694 mmHg 40%
    03:00 +24°C° 0 mm 1 mps 694 mmHg 39%
    04:00 +24°C° 0 mm 1 mps 694 mmHg 38%
    05:00 +24°C° 0 mm 1 mps 694 mmHg 37%
    06:00 +28°C° 0 mm 2 mps 695 mmHg 32%
    07:00 +31°C° 0 mm 2 mps 695 mmHg 27%
    08:00 +35°C° 0 mm 3 mps 696 mmHg 21%
    09:00 +36°C° 0 mm 3 mps 696 mmHg 19%
    10:00 +38°C° 0 mm 4 mps 696 mmHg 17%
    11:00 +41°C° 0 mm 5 mps 696 mmHg 14%
    12:00 +43°C° 0 mm 7 mps 696 mmHg 13%
    13:00 +44°C° 0 mm 9 mps 696 mmHg 12%
    14:00 +46°C° 0 mm 11 mps 696 mmHg 11%
    15:00 +44°C° 0 mm 10 mps 696 mmHg 13%
    16:00 +42°C° 0 mm 9 mps 695 mmHg 16%
    17:00 +39°C° 0 mm 7 mps 695 mmHg 19%
    18:00 +36°C° 0 mm 5 mps 695 mmHg 23%
    19:00 +33°C° 0 mm 3 mps 695 mmHg 27%
    20:00 +30°C° 0 mm 2 mps 695 mmHg 30%
    21:00 +29°C° 0 mm 2 mps 695 mmHg 33%
    22:00 +28°C° 0 mm 2 mps 695 mmHg 35%
    23:00 +28°C° 0 mm 2 mps 695 mmHg 37%

    Day after tomorrow, 18 July, Thursday

    Time Temperature Precipitation Wind Pressure Humidity
    00:00 +27°C° 0 mm 2 mps 695 mmHg 40%
    01:00 +26°C° 0 mm 1 mps 694 mmHg 44%
    02:00 +25°C° 0 mm 1 mps 694 mmHg 48%
    03:00 +25°C° 0 mm 1 mps 694 mmHg 50%
    04:00 +24°C° 0 mm 1 mps 694 mmHg 53%
    05:00 +24°C° 0 mm 1 mps 694 mmHg 55%
    06:00 +26°C° 0 mm 2 mps 695 mmHg 48%
    07:00 +28°C° 0 mm 2 mps 695 mmHg 42%
    08:00 +30°C° 0 mm 2 mps 696 mmHg 35%
    09:00 +33°C° 0 mm 3 mps 696 mmHg 31%
    10:00 +34°C° 0 mm 3 mps 696 mmHg 28%
    11:00 +36°C° 0 mm 4 mps 696 mmHg 24%
    12:00 +37°C° 0 mm 4 mps 696 mmHg 23%
    13:00 +37°C° 0 mm 4 mps 696 mmHg 23%
    14:00 +38°C° 0 mm 4 mps 695 mmHg 22%
    15:00 +37°C° 0 mm 5 mps 695 mmHg 25%
    16:00 +36°C° 0 mm 6 mps 695 mmHg 28%
    17:00 +34°C° 0 mm 7 mps 695 mmHg 31%
    18:00 +32°C° 0 mm 5 mps 696 mmHg 36%
    19:00 +29°C° 0 mm 4 mps 696 mmHg 41%
    20:00 +27°C° 0 mm 2 mps 696 mmHg 46%
    21:00 +26°C° 0 mm 2 mps 696 mmHg 50%
    22:00 +25°C° 0 mm 2 mps 696 mmHg 54%
    23:00 +24°C° 0 mm 2 mps 696 mmHg 58%

    19 July, Friday

    Time Temperature Precipitation Wind Pressure Humidity
    00:00 +23°C° 0 mm 2 mps 696 mmHg 61%
    01:00 +21°C° 0 mm 2 mps 696 mmHg 64%
    02:00 +21°C° 0 mm 2 mps 696 mmHg 67%
    03:00 +20°C° 0 mm 2 mps 696 mmHg 68%
    04:00 +20°C° 0 mm 2 mps 696 mmHg 70%
    05:00 +19°C° 0 mm 2 mps 696 mmHg 71%
    06:00 +21°C° 0 mm 2 mps 696 mmHg 62%
    07:00 +24°C° 0 mm 2 mps 697 mmHg 53%
    08:00 +26°C° 0 mm 2 mps 697 mmHg 44%
    09:00 +27°C° 0 mm 2 mps 697 mmHg 38%
    10:00 +29°C° 0 mm 3 mps 697 mmHg 32%
    11:00 +31°C° 0 mm 3 mps 697 mmHg 25%
    12:00 +33°C° 0 mm 3 mps 697 mmHg 23%
    13:00 +34°C° 0 mm 3 mps 697 mmHg 21%
    14:00 +35°C° 0 mm 3 mps 696 mmHg 19%
    15:00 +34°C° 0 mm 4 mps 696 mmHg 21%
    16:00 +34°C° 0 mm 5 mps 696 mmHg 23%
    17:00 +34°C° 0 mm 5 mps 696 mmHg 26%
    18:00 +30°C° 0 mm 4 mps 696 mmHg 35%
    19:00 +27°C° 0 mm 3 mps 696 mmHg 44%
    20:00 +25°C° 0 mm 2 mps 696 mmHg 54%
    21:00 +24°C° 0 mm 2 mps 696 mmHg 58%
    22:00 +23°C° 0 mm 2 mps 696 mmHg 63%
    23:00 +21°C° 0 mm 2 mps 696 mmHg 67%

    20 July, Saturday

    Time Temperature Precipitation Wind Pressure Humidity
    00:00 +20°C° 0 mm 2 mps 696 mmHg 68%
    01:00 +20°C° 0 mm 2 mps 696 mmHg 68%
    02:00 +19°C° 0 mm 2 mps 696 mmHg 69%
    03:00 +20°C° 0 mm 1 mps 696 mmHg 69%
    04:00 +20°C° 0 mm 1 mps 696 mmHg 69%
    05:00 +19°C° 0 mm 1 mps 696 mmHg 69%
    06:00 +21°C° 0 mm 1 mps 696 mmHg 60%
    07:00 +24°C° 0 mm 2 mps 697 mmHg 51%
    08:00 +26°C° 0 mm 2 mps 697 mmHg 42%
    09:00 +27°C° 0 mm 2 mps 697 mmHg 38%
    10:00 +29°C° 0 mm 2 mps 697 mmHg 33%
    11:00 +31°C° 0 mm 2 mps 697 mmHg 28%
    12:00 +33°C° 0 mm 3 mps 697 mmHg 25%
    13:00 +34°C° 0 mm 3 mps 697 mmHg 22%
    14:00 +35°C° 0 mm 4 mps 697 mmHg 20%
    15:00 +35°C° 0 mm 4 mps 697 mmHg 22%
    16:00 +34°C° 0 mm 5 mps 696 mmHg 25%
    17:00 +34°C° 0 mm 6 mps 696 mmHg 27%
    18:00 +30°C° 0 mm 5 mps 696 mmHg 37%
    19:00 +27°C° 0 mm 4 mps 696 mmHg 46%
    20:00 +25°C° 0 mm 2 mps 697 mmHg 56%
    21:00 +24°C° 0 mm 2 mps 697 mmHg 59%
    22:00 +23°C° 0 mm 2 mps 696 mmHg 62%
    23:00 +23°C° 0 mm 2 mps 696 mmHg 66%

    21 July, Sunday

    Time Temperature Precipitation Wind Pressure Humidity
    00:00 +21°C° 0 mm 2 mps 696 mmHg 68%
    01:00 +20°C° 0 mm 2 mps 696 mmHg 71%
    02:00 +20°C° 0 mm 2 mps 695 mmHg 74%
    03:00 +20°C° 0 mm 1 mps 695 mmHg 74%
    04:00 +20°C° 0 mm 1 mps 695 mmHg 74%
    05:00 +19°C° 0 mm 1 mps 695 mmHg 74%
    06:00 +22°C° 0 mm 1 mps 696 mmHg 66%
    07:00 +24°C° 0 mm 1 mps 696 mmHg 58%
    08:00 +26°C° 0 mm 1 mps 697 mmHg 49%
    09:00 +28°C° 0 mm 2 mps 697 mmHg 42%
    10:00 +30°C° 0 mm 2 mps 697 mmHg 35%
    11:00 +33°C° 0 mm 3 mps 697 mmHg 28%
    12:00 +34°C° 0 mm 3 mps 696 mmHg 25%
    13:00 +35°C° 0 mm 3 mps 696 mmHg 23%
    14:00 +36°C° 0 mm 4 mps 696 mmHg 20%
    15:00 +36°C° 0 mm 4 mps 696 mmHg 21%
    16:00 +35°C° 0 mm 5 mps 695 mmHg 22%
    17:00 +35°C° 0 mm 5 mps 695 mmHg 22%
    18:00 +32°C° 0 mm 4 mps 695 mmHg 33%
    19:00 +29°C° 0 mm 4 mps 695 mmHg 44%
    20:00 +26°C° 0 mm 3 mps 695 mmHg 54%
    21:00 +25°C° 0 mm 3 mps 695 mmHg 59%
    22:00 +25°C° 0 mm 3 mps 695 mmHg 63%
    23:00 +24°C° 0 mm 2 mps 695 mmHg 68%
    Show more